Bryce Canyon, UT

1:34 AM MDT on June 28, 2017 (GMT -0600)
Bryce Canyon

Weather History for KBCE - April, 2014

Change the Weather History Date:

Saturday, April 19, 2014

  Actual Average Record
Temperature  
Mean Temperature 46 °F -  
Max Temperature 57 °F 50 °F 71 °F (1962)
Min Temperature 36 °F 23 °F 9 °F (2007)
Degree Days  
Heating Degree Days 20    
Moisture  
Dew Point 31 °F    
Average Humidity 60    
Maximum Humidity 86    
Minimum Humidity 34    
Precipitation  
Precipitation 0.00 in - - ()
Sea Level Pressure  
Sea Level Pressure 29.95 in    
Wind  
Wind Speed 4 mph (West)    
Max Wind Speed 16 mph    
Max Gust Speed -    
Visibility 10 miles    
Events      
Averages and records for this station are not official NWS values.
T = Trace of Precipitation, MM = Missing Value Source: NWS Daily Summary

Daily Weather History Graph

Daily Weather History Graph

Search for Another Location

Airport or City:

Trip Planner

Search our weather history database for the weather conditions in past years. The results will help you decide how hot, cold, wet, or windy it might be!

Date:

Astronomy

Apr. 19, 2014 Rise Set
Actual Time 6:47 AM MDT 8:07 PM MDT
Civil Twilight 6:20 AM MDT 8:35 PM MDT
Nautical Twilight 5:47 AM MDT 9:08 PM MDT
Astronomical Twilight 5:13 AM MDT 9:42 PM MDT
Moon No Moon Rise 10:12 AM MDT (4/19)
Length of Visible Light 14h 14m
Length of Day
13h 20m
Waning Gibbous, 78% of the Moon is Illuminated
Apr 19
Waning Gibbous
Apr 22
Last Quarter
Apr 29
New
May 6
First Quarter
May 14
Full

Hourly Weather History & Observations

Time (MDT) Temp. Windchill Dew Point Humidity Pressure Visibility Wind Dir Wind Speed Gust Speed Precip Events Conditions
12:53 AM 36.0 °F - 25.0 °F 64% 29.88 in 10.0 mi Calm Calm - N/A   Mostly Cloudy
1:53 AM 36.0 °F 33.3 °F 27.0 °F 70% 29.88 in 10.0 mi SW 3.5 mph - N/A   Overcast
3:53 AM 37.9 °F - 28.0 °F 68% 29.88 in 10.0 mi Calm Calm - N/A   Overcast
4:53 AM 37.0 °F - 30.0 °F 76% 29.90 in 10.0 mi Calm Calm - N/A   Overcast
5:53 AM 37.0 °F 33.3 °F 28.9 °F 73% 29.90 in 10.0 mi Variable 4.6 mph - N/A   Overcast
6:53 AM 36.0 °F 29.6 °F 28.9 °F 76% 29.94 in 10.0 mi West 8.1 mph - N/A   Clear
7:53 AM 37.0 °F 34.5 °F 28.9 °F 73% 29.96 in 10.0 mi West 3.5 mph - N/A   Mostly Cloudy
8:53 AM 43.0 °F 41.3 °F 30.0 °F 60% 29.95 in 10.0 mi WNW 3.5 mph - N/A   Clear
9:53 AM 48.0 °F - 30.0 °F 50% 29.94 in 10.0 mi Calm Calm - N/A   Partly Cloudy
10:53 AM 53.1 °F - 28.9 °F 40% 29.96 in 10.0 mi Calm Calm - N/A   Scattered Clouds
11:53 AM 55.9 °F - 28.9 °F 36% 29.94 in 10.0 mi Calm Calm - N/A   Scattered Clouds
12:53 PM 55.0 °F - 27.0 °F 34% 29.93 in 10.0 mi NNW 4.6 mph - N/A   Overcast
1:53 PM 50.0 °F - 35.1 °F 57% 29.97 in 10.0 mi East 16.1 mph - N/A   Overcast
2:53 PM 52.0 °F - 35.1 °F 53% 29.97 in 10.0 mi East 9.2 mph - 0.00 in   Overcast
3:53 PM 55.0 °F - 35.1 °F 47% 29.94 in 10.0 mi SSW 11.5 mph - 0.00 in   Overcast
4:53 PM 54.0 °F - 36.0 °F 51% 29.94 in 10.0 mi WSW 11.5 mph - N/A   Scattered Clouds
5:53 PM 52.0 °F - 34.0 °F 50% 29.95 in 10.0 mi West 6.9 mph - N/A   Overcast
6:53 PM 55.0 °F - 30.9 °F 40% 29.94 in 10.0 mi Calm Calm - N/A   Mostly Cloudy
7:53 PM 50.0 °F - 34.0 °F 54% 29.97 in 10.0 mi NE 10.4 mph - N/A   Partly Cloudy
8:53 PM 42.1 °F 37.7 °F 33.1 °F 70% 30.01 in 10.0 mi West 6.9 mph - N/A   Scattered Clouds
9:53 PM 39.0 °F 33.4 °F 30.9 °F 73% 30.02 in 10.0 mi West 8.1 mph - N/A   Clear
10:53 PM 36.0 °F - 30.9 °F 82% 30.01 in 10.0 mi Calm Calm - N/A   Partly Cloudy
11:53 PM 36.0 °F 29.0 °F 32.0 °F 86% 30.00 in 10.0 mi West 9.2 mph - N/A   Clear